Home   Weather   Brønnøysund   Past weeks
Flag for Norway

Past Weather in Brønnøysund, Norway — Yesterday and Last 2 Weeks

Now
45 °F

Mostly cloudy.


Feels Like: 45 °F
Forecast: 51 / 40 °F
Wind: 2 mph from North

Location: Bronnoysund / Bronnoy

Current Time: Sep 21, 2019 at 11:36:51 pm

Latest Report: Sep 21, 2019 at 10:50 pm


Visibility: N/A

Pressure: 30.04 "Hg

Humidity: 93%

Dew Point: 43 °F

Location of BrønnøysundLocation

Past Weather in Brønnøysund — Graph

°F

Brønnøysund Temperature Yesterday

Maximum temperature yesterday: 52 °F (at 6:50 pm)
Minimum temperature yesterday: 43 °F (at 12:20 am)
Average temperature yesterday: 46 °F

High & Low Weather Summary for the Past Weeks

 TemperatureHumidityPressure
High68 °F (Sep 11, 12:20 pm)100% (Sep 8, 1:20 am)30.24 "Hg (Sep 8, 1:20 am)
Low41 °F (Sep 19, 1:20 am)43% (Sep 9, 4:50 pm)29.12 "Hg (Sep 15, 8:20 am)
Average51 °F79%29.80 "Hg
* Reported Sep 6 9:20 pm — Sep 21 9:50 pm, Brønnøysund. Weather by CustomWeather, © 2019

Note: Actual official high and low records may vary slightly from our data, if they occured in-between our weather recording intervals... More about our weather records

Advertising

Brønnøysund Weather History for the Previous 24 Hours

Scroll right to see more
 ConditionsComfort  
Time TempWeatherWind HumidityBarometerVisibility
9:50 pm
Sat, Sep 21
45 °FSprinkles. Overcast.3 mph93%30.04 "HgN/A
9:20 pm46 °FPassing clouds.2 mph87%30.04 "HgN/A
8:50 pm46 °FMostly cloudy.1 mph87%30.04 "HgN/A
8:20 pm46 °FSprinkles. Passing clouds.1 mph82%30.01 "HgN/A
7:50 pm46 °FSprinkles. Passing clouds.2 mph82%30.01 "HgN/A
7:20 pm46 °FSprinkles. Passing clouds.2 mph82%30.01 "HgN/A
6:50 pm46 °FDrizzle. Broken clouds.3 mph82%30.01 "HgN/A
6:20 pm46 °FPassing clouds.5 mph82%30.01 "HgN/A
5:50 pm48 °FOvercast.5 mph82%29.98 "HgN/A
5:20 pm48 °FOvercast.7 mph76%29.98 "HgN/A
4:50 pm48 °FPartly sunny.3 mph82%29.98 "HgN/A
4:20 pm48 °FOvercast.5 mph82%29.98 "HgN/A
3:50 pm48 °FLight rain. Partly sunny.5 mph76%29.98 "HgN/A
3:20 pm48 °FLight rain. Scattered clouds.3 mph82%29.98 "HgN/A
2:50 pm48 °FBroken clouds.5 mph82%29.98 "HgN/A
2:20 pm48 °FPartly sunny.3 mph82%29.98 "HgN/A
1:50 pm46 °FPartly sunny.1 mph87%29.98 "HgN/A
1:20 pm46 °FBroken clouds.3 mph87%29.98 "HgN/A
12:50 pm46 °FLight rain. Partly sunny.3 mph87%29.95 "HgN/A
12:20 pm46 °FLight rain. Scattered clouds.3 mph87%29.95 "HgN/A
11:50 am46 °FLight rain. Partly sunny.3 mph87%29.95 "HgN/A
11:20 am45 °FLight rain. Partly sunny.6 mph93%29.95 "HgN/A
10:50 am45 °FLight rain. Partly sunny.8 mph87%29.92 "HgN/A
10:20 am45 °FLight rain. Broken clouds.6 mph87%29.92 "HgN/A
9:50 am45 °FLight rain. Partly sunny.6 mph87%29.92 "HgN/A
9:20 am45 °FLight rain. Partly sunny.8 mph87%29.89 "HgN/A
8:50 am45 °FLight rain. Partly sunny.9 mph93%29.89 "HgN/A
8:20 am45 °FLight rain. Overcast.9 mph93%29.89 "HgN/A
7:50 am45 °FLight rain. More clouds than sun.5 mph93%29.89 "HgN/A
7:20 am46 °FLight rain. Overcast.6 mph87%29.86 "HgN/A
6:50 am46 °FLight rain. Broken clouds.7 mph93%29.86 "HgN/A
6:20 am46 °FLight rain. Overcast.9 mph93%29.86 "HgN/A
5:50 am46 °FRain. Mostly cloudy.7 mph93%29.83 "HgN/A
5:20 am46 °FLight rain. Overcast.3 mph93%29.83 "Hg5 mi
4:50 am46 °FLight rain. Partly cloudy.5 mph93%29.83 "HgN/A
4:20 am46 °FLight rain. Mostly cloudy.6 mph100%29.83 "HgN/A
3:50 am46 °FLight rain. Mostly cloudy.9 mph100%29.83 "Hg2 mi
3:20 am48 °FLight rain. Low clouds.7 mph94%29.80 "Hg5 mi
2:50 am48 °FLight rain. Fog.6 mph94%29.80 "Hg3 mi
2:20 am48 °FLight rain. Partly cloudy.6 mph100%29.77 "Hg2 mi
1:50 am50 °FLight rain. Mostly cloudy.7 mph100%29.77 "Hg5 mi
1:20 am52 °FLight rain. Mostly cloudy.8 mph94%29.77 "Hg2 mi
12:50 am52 °FRain. Partly cloudy.9 mph94%29.77 "Hg1 mi
12:20 am52 °FLight rain. Mostly cloudy.12 mph94%29.77 "Hg2 mi
11:50 pm
Fri, Sep 20
52 °FRain. Mostly cloudy.10 mph94%29.77 "Hg1 mi
11:20 pm52 °FDrizzle. Fog.12 mph94%29.77 "Hg2 mi
Weather by CustomWeather, © 2019

See weather overview